DateTimeUTC,F1_A11,F1_S11,BsB_S11,BsG_S11,BsR_S11,BbsB_S11,BbsG_S11,BbsR_S11,BaB_A11,BaG_A11,BaR_A11,T_S11,U_S11,P_S11,T1_A11
2020-01-22T00:00:00Z,00000380,21000600,,,,,,,,,,22.1,00.0,0612.1,30.8
2020-01-22T00:01:00Z,00000380,21000600,,,,,,,,,,22.1,00.0,0612.1,30.8
2020-01-22T00:02:00Z,00000380,21000600,,,,,,,,,,22.1,00.0,0612.1,30.8
2020-01-22T00:03:00Z,00000380,61000600,,,,,,,,,,22.1,00.0,0612.2,30.8
2020-01-22T00:04:00Z,00000380,41000600,0001.28,-000.10,0000.63,-000.70,-000.33,0000.22,0000.02,0000.09,0000.15,22.0,00.0,0613.0,30.8
2020-01-22T00:05:00Z,00000380,01000600,-000.21,0000.34,0000.29,-000.34,-000.15,0000.05,0000.03,0000.15,-000.14,22.0,00.0,0613.0,30.8
2020-01-22T00:06:00Z,00000380,01000600,0000.63,0000.32,0000.75,0000.03,-000.11,0000.29,0000.05,0000.07,0000.20,22.0,00.0,0613.2,30.8
2020-01-22T00:07:00Z,00000380,01000600,-002.84,0000.76,-000.10,-000.45,0000.12,-000.25,0000.09,0000.02,-000.14,22.0,00.0,0613.0,30.8
2020-01-22T00:08:00Z,00000380,01000600,-000.10,0000.05,0000.75,-000.70,-000.21,0000.58,-000.00,-000.03,0000.06,22.0,00.0,0613.1,30.8
2020-01-22T00:09:00Z,00000380,01000600,0000.97,0000.09,0001.16,-000.72,-000.46,0000.09,-000.17,-000.15,0000.02,22.0,00.0,0613.1,30.8
2020-01-22T00:10:00Z,00000380,01000600,-000.99,0000.29,0000.36,-001.08,-000.39,0000.36,0000.14,0000.16,0000.11,22.0,00.0,0613.1,30.8
2020-01-22T00:11:00Z,00000380,01000600,-000.31,0000.28,0000.32,0000.15,0000.17,-000.26,0000.00,0000.06,-000.15,22.0,00.0,0613.1,30.8
2020-01-22T00:12:00Z,00000380,01000600,-000.79,0000.35,0000.03,0000.33,-000.57,0000.37,0000.15,0000.03,0000.05,22.0,00.0,0613.0,30.8
2020-01-22T00:13:00Z,00000380,01000600,-000.35,0000.53,0000.12,-000.51,-000.17,0000.51,-000.05,-000.02,0000.02,22.0,00.0,0613.0,30.8
2020-01-22T00:14:00Z,00000380,01000600,0000.04,0000.38,0000.10,-000.30,-000.21,0000.26,-000.00,-000.02,-000.04,22.0,00.0,0613.0,30.8
2020-01-22T00:15:00Z,00000380,01000600,0000.07,0000.81,0000.83,-000.24,-000.36,0000.53,0000.15,0000.11,0000.13,22.0,00.0,0613.0,30.8
2020-01-22T00:16:00Z,00000380,01000600,-000.41,0000.51,0000.00,0000.01,0000.10,-000.22,-000.20,-000.16,-000.15,22.0,00.0,0612.9,30.8
2020-01-22T00:17:00Z,00000380,01000600,0000.31,0000.41,0000.39,-000.54,-000.21,0000.51,0000.15,0000.14,0000.13,22.0,00.0,0612.9,30.8
2020-01-22T00:18:00Z,00000380,01000600,-000.26,-000.43,0000.73,0000.22,-000.44,0000.16,-000.02,0000.02,0000.04,22.0,00.0,0613.0,30.8
2020-01-22T00:19:00Z,00000380,01000600,0000.58,-000.06,0000.13,-000.69,-000.51,0000.49,0000.17,0000.08,0000.16,22.0,00.0,0613.0,30.8
2020-01-22T00:20:00Z,00000380,01000600,0000.77,-000.07,-000.23,-000.95,-000.26,0000.08,0000.06,-000.03,-000.04,22.0,00.0,0612.9,30.8
2020-01-22T00:21:00Z,00000380,01000600,-000.06,0000.06,0000.60,-000.22,0000.11,-000.24,-000.11,0000.11,-000.05,22.0,00.0,0612.9,30.8
2020-01-22T00:22:00Z,00000380,01000600,0000.87,0000.24,0000.58,-000.46,0000.12,0000.44,0000.06,-000.05,0000.02,22.0,00.0,0613.0,30.8
2020-01-22T00:23:00Z,00000380,01000600,0000.14,0000.38,0000.26,0000.25,-000.18,0000.26,0000.07,0000.04,-000.05,22.0,00.0,0612.9,30.8
2020-01-22T00:24:00Z,00000380,01000600,-000.48,0000.91,0000.31,-000.31,-000.27,0000.27,-000.02,0000.04,0000.02,22.0,00.0,0612.9,30.8
2020-01-22T00:25:00Z,00000380,01000600,-002.35,-000.15,0000.27,-000.88,0000.23,0000.60,-000.01,0000.17,0000.00,22.0,00.0,0612.8,30.8
2020-01-22T00:26:00Z,00000380,01000600,0001.40,-000.50,0000.17,-000.20,0000.03,0000.73,-000.01,-000.16,0000.11,21.9,00.0,0612.9,30.8
2020-01-22T00:27:00Z,00000380,01000600,-000.71,0000.19,-000.05,0000.19,-000.51,0000.22,-000.01,0000.06,-000.07,22.0,00.0,0612.8,30.8
2020-01-22T00:28:00Z,00000380,01000600,-000.49,0000.37,0000.16,-000.94,0000.21,0000.59,0000.06,0000.05,0000.05,22.0,00.0,0612.9,30.8
2020-01-22T00:29:00Z,00000380,01000600,-000.27,0000.12,0000.86,-001.10,0000.01,0000.06,0000.08,0000.03,0000.11,21.9,00.0,0612.9,30.8
2020-01-22T00:30:00Z,00000380,01000600,-000.13,-000.29,-000.56,-000.98,-000.15,-000.20,-000.05,0000.02,-000.12,22.0,00.0,0613.0,30.8
2020-01-22T00:31:00Z,00000380,01000600,-000.07,0000.56,0000.58,0000.25,-000.36,0000.56,0000.06,0000.05,0000.00,22.0,00.0,0613.0,30.8
2020-01-22T00:32:00Z,00000380,01000600,0000.30,0000.13,-000.14,0000.05,0000.02,-000.29,0000.04,-000.01,0000.08,21.9,00.0,0612.9,30.8
2020-01-22T00:33:00Z,00000380,01000600,0000.43,0000.12,0000.37,0000.30,0000.06,0000.06,-000.01,-000.04,0000.09,21.9,00.0,0612.9,30.8
2020-01-22T00:34:00Z,00000380,01000600,-000.61,0000.77,0000.29,-001.22,0000.12,0000.20,0000.01,-000.07,-000.08,22.0,00.0,0612.8,30.8
2020-01-22T00:35:00Z,00000380,01000600,-001.52,0000.50,0000.16,-000.39,-000.23,0000.05,0000.03,0000.10,0000.08,22.0,00.0,0612.8,30.8
2020-01-22T00:36:00Z,00000380,01000600,0000.78,0000.09,0000.85,-000.56,-000.36,0000.51,0000.04,0000.02,-000.09,22.0,00.0,0612.8,30.8
2020-01-22T00:37:00Z,00000380,01000600,-000.90,0000.27,0000.39,0000.18,0000.18,0000.35,0000.06,0000.01,0000.01,22.0,00.0,0612.7,30.8
2020-01-22T00:38:00Z,00000380,01000600,-000.46,0000.66,0000.42,-000.20,-000.02,-000.48,0000.08,0000.22,0000.08,22.0,00.0,0612.8,30.8
2020-01-22T00:39:00Z,00000380,01000600,-000.13,0000.23,0000.12,0000.05,-000.04,0000.58,-000.10,-000.15,-000.00,22.0,00.0,0612.7,30.8
2020-01-22T00:40:00Z,00000380,01000600,0001.10,-000.79,0000.52,0000.72,0000.17,0000.32,0000.02,0000.04,-000.05,22.0,00.0,0612.7,30.8
2020-01-22T00:41:00Z,00000380,01000600,-001.13,0000.41,0000.30,0000.02,-000.30,0000.31,0000.08,-000.07,0000.04,21.9,00.0,0612.8,30.8
2020-01-22T00:42:00Z,00000380,01000600,0001.12,-000.47,-000.38,0000.63,-000.52,0000.21,-000.09,-000.10,-000.00,21.9,00.0,0612.7,30.8
2020-01-22T00:43:00Z,00000380,01000600,-000.56,0000.85,0000.46,-000.42,0000.40,0000.37,-000.01,0000.14,-000.04,21.9,00.0,0612.8,30.8
2020-01-22T00:44:00Z,00000380,01000600,-001.63,0000.72,0000.63,-001.00,-000.38,0000.74,0000.03,-000.11,-000.04,22.0,00.0,0612.8,30.8
2020-01-22T00:45:00Z,00000380,01000600,-000.12,0000.32,-000.01,-000.17,-000.07,0000.09,0000.16,0000.13,0000.13,21.9,00.0,0612.7,30.8
2020-01-22T00:46:00Z,00000380,01000600,0002.06,0000.36,0000.60,-000.66,-000.19,-000.19,-000.02,0000.02,-000.02,22.0,00.0,0612.7,30.8
2020-01-22T00:47:00Z,00000380,01000600,0000.38,0000.38,0000.88,0000.86,0000.11,0000.65,0000.05,-000.08,0000.11,21.9,00.0,0612.6,30.8
2020-01-22T00:48:00Z,00000380,01000600,0000.78,0000.43,-000.16,0000.00,-000.12,0000.29,0000.01,0000.18,0000.04,21.9,00.0,0612.7,30.8
2020-01-22T00:49:00Z,00000380,01000600,0000.30,-000.20,-000.12,-000.59,-000.09,0000.41,0000.04,-000.04,-000.10,22.0,00.0,0612.7,30.8
2020-01-22T00:50:00Z,00000380,01000600,0000.61,-000.01,0000.36,-000.47,-000.18,0000.39,0000.00,-000.04,0000.06,21.9,00.0,0612.8,30.8
2020-01-22T00:51:00Z,00000380,01000600,0000.31,-000.42,0000.12,-000.14,-000.19,0000.43,0000.08,0000.19,-000.07,21.9,00.0,0612.7,30.8
2020-01-22T00:52:00Z,00000380,01000600,0000.66,0000.50,0000.45,-000.53,0000.01,0000.32,-000.10,0000.08,-000.03,21.9,00.0,0612.6,30.8
2020-01-22T00:53:00Z,00000380,01000600,0000.31,-000.24,0000.78,0000.43,-000.24,-000.15,0000.09,-000.14,0000.17,21.9,00.0,0612.6,30.8
2020-01-22T00:54:00Z,00000380,01000600,-000.36,0000.30,-000.16,-000.35,-000.23,0000.58,0000.02,-000.15,-000.11,21.9,00.0,0612.5,30.8
2020-01-22T00:55:00Z,00000380,01000600,0000.95,-000.46,0000.50,0000.54,0000.01,0000.70,-000.10,0000.15,0000.01,21.9,00.0,0612.5,30.8
2020-01-22T00:56:00Z,00000380,01000600,0000.32,0000.20,0000.77,0000.19,0000.10,-000.21,0000.27,0000.11,0000.14,21.9,00.0,0612.5,30.8
2020-01-22T00:57:00Z,00000380,41000600,,,,,,,,,,22.0,00.0,0612.6,30.8
2020-01-22T00:58:00Z,00000380,61000600,,,,,,,,,,22.0,00.0,0611.7,30.8
2020-01-22T00:59:00Z,00000380,21000600,,,,,,,,,,22.1,00.0,0611.6,30.8
2020-01-22T01:00:00Z,00000380,21000600,,,,,,,,,,22.1,00.0,0611.6,30.8
2020-01-22T01:01:00Z,00000380,21000600,,,,,,,,,,22.1,00.0,0611.6,30.8
2020-01-22T01:02:00Z,00000380,21000600,,,,,,,,,,22.1,00.0,0611.6,30.8
2020-01-22T01:03:00Z,00000380,61000600,,,,,,,,,,22.1,00.0,0611.6,30.8
2020-01-22T01:04:00Z,00000380,41000600,0000.42,-000.19,0000.50,0000.60,0000.01,0000.13,-000.03,-000.01,-000.05,22.0,00.0,0612.4,30.8
2020-01-22T01:05:00Z,00000380,01000600,-000.73,0000.59,0000.25,0000.60,0000.16,-000.42,0000.03,-000.09,0000.01,22.0,00.0,0612.5,30.8
2020-01-22T01:06:00Z,00000380,01000600,-001.31,0000.53,0000.71,0000.33,0000.13,-000.13,0000.17,0000.23,-000.02,22.0,00.0,0612.6,30.8
2020-01-22T01:07:00Z,00000380,01000600,-001.34,-000.21,0000.61,0000.04,0000.08,0000.06,-000.16,-000.15,-000.07,22.0,00.0,0612.5,30.8
2020-01-22T01:08:00Z,00000380,01000600,-000.06,0000.23,-000.01,0000.11,0000.31,-000.02,0000.06,0000.10,0000.03,22.0,00.0,0612.5,30.8
2020-01-22T01:09:00Z,00000380,01000600,0000.74,0000.51,0000.47,-000.13,-000.06,0000.09,0000.06,0000.05,0000.09,22.0,00.0,0612.5,30.8
2020-01-22T01:10:00Z,00000380,01000600,0000.85,0000.54,0000.21,-000.65,0000.17,0000.22,0000.03,-000.09,0000.02,22.0,00.0,0612.5,30.8
2020-01-22T01:11:00Z,00000380,01000600,-000.44,0000.46,-000.08,0000.08,0000.19,-000.22,-000.10,-000.06,0000.02,22.0,00.0,0612.5,30.8
2020-01-22T01:12:00Z,00000380,01000600,0000.59,0000.09,0000.16,0000.07,0000.11,0000.29,0000.10,0000.21,0000.10,21.9,00.0,0612.5,30.8
2020-01-22T01:13:00Z,00000380,01000600,0001.05,0000.21,0000.12,-000.49,0000.20,-000.16,-000.04,0000.01,-000.13,21.9,00.0,0612.5,30.8
2020-01-22T01:14:00Z,00000380,01000600,0000.54,0000.85,0000.46,0000.20,0000.17,0000.03,0000.07,-000.06,0000.08,21.9,00.0,0612.5,30.8
2020-01-22T01:15:00Z,00000380,01000600,-000.76,0000.07,0000.10,-000.62,0000.45,-000.16,0000.01,-000.01,-000.08,21.9,00.0,0612.4,30.8
2020-01-22T01:16:00Z,00000380,01000600,0001.52,0000.60,0000.15,-000.65,0000.23,0000.26,0000.04,-000.15,0000.09,21.9,00.0,0612.5,30.8
2020-01-22T01:17:00Z,00000380,01000600,-000.09,0000.23,0000.24,-001.24,0000.08,0000.09,-000.08,-000.00,0000.05,21.9,00.0,0612.5,30.8
2020-01-22T01:18:00Z,00000380,01000600,0000.46,0000.24,0000.20,-000.32,0000.18,-000.09,-000.02,0000.16,-000.08,21.9,00.0,0612.6,30.8
2020-01-22T01:19:00Z,00000380,01000600,-000.28,0000.37,0000.37,-000.35,0000.21,-000.15,0000.04,0000.03,0000.05,21.9,00.0,0612.6,30.8
2020-01-22T01:20:00Z,00000380,01000600,0000.02,-000.56,0000.29,-000.08,0000.10,0000.06,0000.16,0000.04,0000.21,21.9,00.0,0612.5,30.8
2020-01-22T01:21:00Z,00000380,01000600,-001.42,0000.01,-000.06,-000.15,0000.23,-000.28,-000.11,-000.11,-000.34,21.9,00.0,0612.6,30.8
2020-01-22T01:22:00Z,00000380,01000600,0000.10,0000.06,0000.66,-000.17,0000.30,0000.04,-000.02,0000.14,0000.03,21.9,00.0,0612.6,30.8
2020-01-22T01:23:00Z,00000380,01000600,-000.64,-000.19,0000.34,-000.03,0000.22,0000.07,0000.00,-000.04,0000.21,21.9,00.0,0612.6,30.8
2020-01-22T01:24:00Z,00000380,01000600,0000.53,0000.10,0000.66,0000.22,0000.44,-000.21,0000.09,0000.14,-000.11,21.9,00.0,0612.5,30.8
2020-01-22T01:25:00Z,00000380,01000600,0000.44,0000.35,0000.39,-000.65,-000.09,0000.02,0000.04,0000.07,0000.10,21.9,00.0,0612.6,30.8
2020-01-22T01:26:00Z,00000380,01000600,-000.76,0000.17,-000.11,0000.25,0000.35,-000.28,0000.00,-000.15,-000.07,21.9,00.0,0612.6,30.8
2020-01-22T01:27:00Z,00000380,01000600,-000.40,0000.36,0000.39,0000.27,0000.28,-000.14,-000.03,0000.06,0000.00,21.9,00.0,0612.6,30.8
2020-01-22T01:28:00Z,00000380,01000600,-001.28,0000.11,0000.27,-000.05,0000.77,-000.10,0000.08,0000.05,0000.04,21.9,00.0,0612.6,30.8
2020-01-22T01:29:00Z,00000380,01000600,-000.11,0000.30,0000.31,0000.28,0000.37,0000.11,0000.07,0000.00,0000.03,21.9,00.0,0612.5,30.8
2020-01-22T01:30:00Z,00000380,01000600,-000.41,-000.40,0000.80,-001.09,-000.23,0000.01,0000.04,0000.04,0000.08,21.9,00.0,0612.6,30.8
2020-01-22T01:31:00Z,00000380,01000600,0000.97,-000.04,0000.13,-000.01,0000.03,0000.23,0000.05,-000.08,-000.03,21.9,00.0,0612.6,30.8
2020-01-22T01:32:00Z,00000380,01000600,-000.59,0000.47,-000.04,-000.13,0000.29,-000.18,-000.04,-000.07,0000.05,21.9,00.0,0612.6,30.8
2020-01-22T01:33:00Z,00000380,01000600,-000.15,0000.46,0001.05,0000.34,0000.05,0000.20,0000.02,0000.13,-000.08,22.0,00.0,0612.6,30.8
2020-01-22T01:34:00Z,00000380,01000600,-000.26,0000.22,0000.54,0001.08,0000.24,0000.11,-000.03,-000.05,-000.04,22.0,00.0,0612.6,30.8
2020-01-22T01:35:00Z,00000380,01000600,-000.36,-000.58,-000.24,-000.34,0000.11,0000.44,0000.05,0000.05,0000.09,22.0,00.0,0612.5,30.8
2020-01-22T01:36:00Z,00000380,01000600,0000.95,0000.77,0000.15,-000.23,0000.28,0000.40,0000.21,0000.13,0000.12,22.0,00.0,0612.5,30.8
2020-01-22T01:37:00Z,00000380,01000600,0000.71,-000.20,0000.29,-000.58,0000.46,0000.20,-000.11,-000.01,-000.12,22.0,00.0,0612.5,30.8
2020-01-22T01:38:00Z,00000380,01000600,0000.68,0000.31,0000.10,0000.13,0000.28,-000.38,-000.04,-000.02,0000.04,22.0,00.0,0612.5,30.8
2020-01-22T01:39:00Z,00000380,01000600,-001.61,0000.23,0000.38,-000.45,0000.01,0000.11,0000.15,-000.02,-000.04,22.0,00.0,0612.5,30.8
2020-01-22T01:40:00Z,00000380,01000600,0000.52,-000.28,0000.88,0000.11,0000.59,-000.14,-000.08,0000.02,0000.03,22.0,00.0,0612.5,30.8
2020-01-22T01:41:00Z,00000380,01000600,0000.92,0000.39,-000.47,0000.12,0000.43,-000.20,0000.01,0000.11,0000.16,22.0,00.0,0612.3,30.8
2020-01-22T01:42:00Z,00000380,01000600,-000.10,-000.34,0000.29,-000.76,0000.20,-000.00,0000.07,0000.01,-000.12,22.0,00.0,0612.4,30.8
2020-01-22T01:43:00Z,00000380,01000600,0000.15,-000.09,0000.04,-000.77,0000.34,-000.08,0000.06,0000.11,0000.06,22.0,00.0,0612.4,30.8
2020-01-22T01:44:00Z,00000380,01000600,-000.50,-000.47,0000.04,0000.26,-000.12,0000.07,0000.05,-000.11,0000.00,22.0,00.0,0612.4,30.8
2020-01-22T01:45:00Z,00000380,01000600,-000.65,-000.11,0000.26,-000.07,0000.33,-000.44,-000.02,-000.02,-000.02,22.0,00.0,0612.4,30.8
2020-01-22T01:46:00Z,00000380,01000600,0001.02,0000.68,0000.49,-000.77,0000.26,0000.01,0000.03,0000.16,0000.02,22.1,00.0,0612.4,30.8
2020-01-22T01:47:00Z,00000380,01000600,-000.12,0000.13,0000.35,0000.68,0000.12,-000.08,-000.11,-000.07,0000.08,22.1,00.0,0612.4,30.8
2020-01-22T01:48:00Z,00000380,01000600,0000.18,-000.20,-000.01,-000.83,0000.27,0000.15,0000.11,0000.11,-000.03,22.1,00.0,0612.4,30.8
2020-01-22T01:49:00Z,00000380,01000600,-000.26,0000.59,0000.11,-000.12,0000.03,0000.19,-000.08,-000.02,0000.00,22.1,00.0,0612.4,30.8
2020-01-22T01:50:00Z,00000380,01000600,0000.65,0000.60,-000.04,0000.05,0000.10,-000.31,0000.19,0000.20,0000.20,22.1,00.0,0612.3,30.8
2020-01-22T01:51:00Z,00000380,01000600,-000.98,0000.21,0000.15,-000.70,0000.37,-000.27,0000.03,-000.07,-000.08,22.1,00.0,0612.3,30.8
2020-01-22T01:52:00Z,00000380,01000600,-000.73,0000.30,0000.36,-000.86,0000.44,-000.27,0000.07,-000.04,-000.01,22.1,00.0,0612.3,30.8
2020-01-22T01:53:00Z,00000380,01000600,0000.23,0000.41,-000.14,0000.14,0000.11,-000.16,-000.12,-000.01,0000.06,22.1,00.0,0612.3,30.8
2020-01-22T01:54:00Z,00000380,01000600,0001.56,0000.19,0000.02,-000.28,0000.08,0000.16,0000.07,-000.01,-000.11,22.1,00.0,0612.3,30.8
2020-01-22T01:55:00Z,00000380,01000600,0000.62,-000.52,0000.14,-000.45,0000.50,-000.11,-000.04,-000.12,-000.01,22.1,00.0,0612.3,30.8
2020-01-22T01:56:00Z,00000380,01000600,0000.29,-000.17,-000.09,-000.59,0000.20,-000.21,-000.09,0000.15,0000.14,22.1,00.0,0612.3,30.8
2020-01-22T01:57:00Z,00000380,41000600,,,,,,,,,,22.2,00.0,0612.3,30.8
2020-01-22T01:58:00Z,00000380,61000600,,,,,,,,,,22.2,00.0,0611.3,30.8
2020-01-22T01:59:00Z,00000380,21000600,,,,,,,,,,22.3,00.0,0611.3,30.8
2020-01-22T02:00:00Z,00000380,21000600,,,,,,,,,,22.3,00.0,0611.2,30.8
2020-01-22T02:01:00Z,00000380,21000600,,,,,,,,,,22.4,00.0,0611.2,30.8
2020-01-22T02:02:00Z,00000380,21000600,,,,,,,,,,22.4,00.0,0611.2,30.8
2020-01-22T02:03:00Z,00000380,61000600,,,,,,,,,,22.4,00.0,0611.2,30.8
2020-01-22T02:04:00Z,00000380,41000600,0000.66,-000.72,-000.08,0000.24,-000.37,0000.27,0000.14,0000.07,0000.05,22.3,00.0,0612.2,30.8
2020-01-22T02:05:00Z,00000380,01000600,0001.63,0000.07,0000.53,-000.41,-000.51,0000.25,-000.08,0000.02,-000.01,22.3,00.0,0612.2,30.8
2020-01-22T02:06:00Z,00000380,01000600,-000.54,-000.31,-000.16,-000.38,-000.21,0000.39,0000.03,0000.11,-000.05,22.3,00.0,0612.2,30.8
2020-01-22T02:07:00Z,00000380,01000600,-000.08,-000.33,0000.39,-000.46,-000.46,0000.28,0000.07,-000.07,0000.13,22.2,00.0,0612.2,30.8
2020-01-22T02:08:00Z,00000380,01000600,0001.08,0000.06,-000.03,0001.67,0000.14,0000.05,0000.06,0000.12,0000.04,22.2,00.0,0612.2,30.8
2020-01-22T02:09:00Z,00000380,01000600,-000.31,0000.26,-000.09,0001.03,0000.00,0000.15,-000.04,0000.10,-000.10,22.2,00.0,0612.2,30.8
2020-01-22T02:10:00Z,00000380,01000600,0001.46,-000.06,0000.87,0000.12,0000.32,0000.03,-000.01,-000.07,0000.01,22.2,00.0,0612.3,30.8
2020-01-22T02:11:00Z,00000380,01000600,0000.79,0000.58,0000.54,-000.57,-000.32,-000.11,-000.12,0000.15,0000.04,22.3,00.0,0612.3,30.8
2020-01-22T02:12:00Z,00000380,01000600,-000.48,0000.46,-000.29,0000.48,-000.21,0000.11,0000.16,-000.24,0000.09,22.3,00.0,0612.3,30.8
2020-01-22T02:13:00Z,00000380,01000600,0000.05,-000.34,-000.30,0000.55,-000.63,0000.64,0000.05,0000.06,0000.08,22.3,00.0,0612.3,30.8
2020-01-22T02:14:00Z,00000380,01000600,0000.91,-000.09,0000.25,0000.32,-000.05,0000.21,-000.09,0000.17,0000.03,22.3,00.0,0612.2,30.8
2020-01-22T02:15:00Z,00000380,01000600,0000.29,-000.03,-000.12,0000.45,-000.16,0000.07,0000.05,0000.02,-000.04,22.3,00.0,0612.2,30.8
2020-01-22T02:16:00Z,00000380,01000600,0000.24,0000.14,0000.72,-000.70,-000.32,0000.47,-000.01,-000.20,-000.02,22.3,00.0,0612.3,30.8
2020-01-22T02:17:00Z,00000380,01000600,-000.26,-000.39,0000.24,-000.32,-000.11,-000.19,0000.03,0000.13,0000.02,22.3,00.0,0612.2,30.8
2020-01-22T02:18:00Z,00000380,01000600,0001.05,-000.13,0000.11,0000.22,-000.48,0000.03,0000.10,0000.10,0000.02,22.3,00.0,0612.2,30.8
2020-01-22T02:19:00Z,00000380,01000600,0000.74,-000.19,0000.57,0001.05,-000.29,0000.14,-000.12,-000.09,-000.00,22.3,00.0,0612.3,30.8
2020-01-22T02:20:00Z,00000380,01000600,-000.29,0000.13,-000.39,0000.31,-000.04,0000.32,0000.09,-000.02,-000.03,22.3,00.0,0612.2,30.8
2020-01-22T02:21:00Z,00000380,01000600,0000.39,-000.54,0000.29,-000.57,-000.42,-000.04,-000.04,0000.06,0000.15,22.3,00.0,0612.2,30.8
2020-01-22T02:22:00Z,00000380,01000600,0000.26,-000.11,0000.20,0000.68,0000.17,0000.03,-000.04,-000.06,-000.17,22.3,00.0,0612.2,30.8
2020-01-22T02:23:00Z,00000380,01000600,0000.15,0000.12,0000.18,0000.41,-000.28,0000.16,-000.02,-000.02,0000.00,22.3,00.0,0612.1,30.8
2020-01-22T02:24:00Z,00000380,01000600,0000.12,-000.07,0000.42,-001.65,-000.46,0000.11,-000.02,0000.06,0000.11,22.3,00.0,0612.1,30.8
2020-01-22T02:25:00Z,00000380,01000600,-001.14,0000.46,-000.29,0000.99,-000.21,0000.07,0000.23,0000.07,-000.01,22.3,00.0,0612.1,30.8
2020-01-22T02:26:00Z,00000380,01000600,0000.70,-000.57,0000.44,0000.83,0000.19,0000.38,-000.11,-000.06,0000.02,22.3,00.0,0612.1,30.8
2020-01-22T02:27:00Z,00000380,01000600,0000.35,-000.61,0000.03,0000.84,-000.12,0000.38,0000.20,0000.19,0000.07,22.3,00.0,0612.0,30.8
2020-01-22T02:28:00Z,00000380,01000600,0002.08,-000.05,0000.57,0000.21,-000.19,0000.63,-000.05,-000.00,-000.06,22.3,00.0,0612.0,30.8
2020-01-22T02:29:00Z,00000380,01000600,-000.22,-000.09,0000.14,0000.09,-000.21,-000.43,0000.06,0000.12,0000.14,22.3,00.0,0612.0,30.8
2020-01-22T02:30:00Z,00000380,01000600,0000.36,-000.48,0000.75,0000.41,-000.04,0000.30,0000.05,-000.01,-000.08,22.3,00.0,0612.1,30.8
2020-01-22T02:31:00Z,00000380,01000600,-000.17,-000.01,0000.11,-000.33,-000.20,0000.12,0000.02,0000.01,0000.06,22.3,00.0,0612.1,30.8
2020-01-22T02:32:00Z,00000380,01000600,0000.47,0000.15,0000.20,-000.08,-000.35,0000.46,0000.00,0000.06,-000.03,22.3,00.0,0612.1,30.8
2020-01-22T02:33:00Z,00000380,01000600,-000.50,-000.35,0000.59,0000.02,-000.24,0000.38,-000.02,-000.05,0000.05,22.3,00.0,0612.1,30.8
2020-01-22T02:34:00Z,00000380,01000600,0001.48,-000.38,0000.25,0001.00,-000.41,0000.29,0000.10,0000.02,-000.02,22.3,00.0,0612.1,30.8
2020-01-22T02:35:00Z,00000380,01000600,-001.24,-000.20,0000.89,-000.41,0000.04,0000.25,-000.10,-000.13,-000.00,22.3,00.0,0612.1,30.8
2020-01-22T02:36:00Z,00000380,01000600,0000.12,-000.70,0000.38,0000.02,-000.85,0000.16,0000.01,0000.18,0000.03,22.3,00.0,0612.1,30.8
2020-01-22T02:37:00Z,00000380,01000600,0001.47,-000.38,0000.19,-000.35,-000.15,0000.46,0000.16,0000.09,0000.13,22.3,00.0,0612.1,30.8
2020-01-22T02:38:00Z,00000380,01000600,0001.56,0000.14,-000.37,-000.48,0000.12,0000.20,-000.09,0000.04,-000.10,22.3,00.0,0612.1,30.8
2020-01-22T02:39:00Z,00000380,01000600,-000.16,-000.65,0000.08,-000.05,0000.01,0000.37,0000.06,-000.09,0000.08,22.3,00.0,0612.1,30.8
2020-01-22T02:40:00Z,00000380,01000600,-000.69,-000.12,0000.46,0000.34,-000.43,0000.84,0000.03,0000.11,-000.06,22.3,00.0,0612.0,30.8
2020-01-22T02:41:00Z,00000380,01000600,0000.21,-000.21,-000.29,0000.23,0000.18,0000.27,0000.12,-000.03,0000.14,22.3,00.0,0612.0,30.8
2020-01-22T02:42:00Z,00000380,01000600,0000.40,0000.14,-000.09,0000.16,0000.21,0000.27,-000.08,0000.07,-000.10,22.3,00.0,0612.0,30.8
2020-01-22T02:43:00Z,00000380,01000600,-000.68,-000.05,0000.09,-001.19,0000.06,0000.27,-000.02,-000.07,0000.09,22.3,00.0,0612.0,30.8
2020-01-22T02:44:00Z,00000380,01000600,0000.56,-000.24,0000.40,-000.05,-000.24,0000.56,0000.02,0000.10,0000.01,22.3,00.0,0611.9,30.8
2020-01-22T02:45:00Z,00000380,01000600,0000.46,-000.08,0000.21,0000.52,-000.16,0000.39,-000.02,-000.02,-000.14,22.3,00.0,0611.9,30.8
2020-01-22T02:46:00Z,00000380,01000600,0000.58,-000.19,0000.54,0000.94,0000.24,-000.10,0000.17,-000.03,0000.27,22.3,00.0,0611.9,30.8
2020-01-22T02:47:00Z,00000380,01000600,0000.89,0000.33,-000.13,0000.01,0000.18,0000.62,-000.05,0000.14,-000.03,22.3,00.0,0611.9,30.8
2020-01-22T02:48:00Z,00000380,01000600,0000.39,0000.27,-000.03,0000.12,-000.15,0000.51,0000.02,0000.02,-000.06,22.3,00.0,0611.8,30.8
2020-01-22T02:49:00Z,00000380,01000600,0000.96,-000.36,-000.28,0000.70,-000.26,-000.06,0000.02,0000.01,0000.09,22.3,00.0,0611.9,30.8
2020-01-22T02:50:00Z,00000380,01000600,0000.50,0000.22,0000.20,0001.06,0000.22,0000.33,0000.01,-000.08,-000.03,22.3,00.0,0611.8,30.8
2020-01-22T02:51:00Z,00000380,01000600,0000.66,0000.09,0000.04,0000.52,-000.21,0000.08,-000.11,0000.08,-000.02,22.3,00.0,0611.9,30.8
2020-01-22T02:52:00Z,00000380,01000600,-000.20,-000.62,-000.62,-000.08,-000.20,0000.62,0000.27,0000.12,0000.18,22.3,00.0,0611.8,30.8
2020-01-22T02:53:00Z,00000380,01000600,-000.02,0000.19,0000.71,0001.12,-000.34,0000.07,-000.01,0000.10,-000.07,22.3,00.0,0611.8,30.8
2020-01-22T02:54:00Z,00000380,01000600,0000.17,0000.01,0000.20,0000.70,-000.25,0000.41,-000.06,-000.15,0000.01,22.3,00.0,0611.7,30.8
2020-01-22T02:55:00Z,00000380,01000600,0000.26,0000.19,-000.03,-000.18,-000.24,0000.13,0000.18,0000.18,0000.06,22.3,00.0,0611.7,30.8
2020-01-22T02:56:00Z,00000380,01000600,0000.57,0000.16,0000.20,-000.12,0000.24,0000.50,-000.06,-000.02,-000.00,22.3,00.0,0611.8,30.8
2020-01-22T02:57:00Z,00000380,41000600,,,,,,,,,,22.4,00.0,0611.6,30.8
2020-01-22T02:58:00Z,00000380,61000600,,,,,,,,,,22.4,00.0,0610.9,30.8
2020-01-22T02:59:00Z,00000380,21000600,,,,,,,,,,22.5,00.0,0610.9,30.8
2020-01-22T03:00:00Z,00000380,21000600,,,,,,,,,,22.5,00.0,0610.9,30.8
2020-01-22T03:01:00Z,00000380,21000600,,,,,,,,,,22.5,00.0,0610.9,30.8
2020-01-22T03:02:00Z,00000380,21000600,,,,,,,,,,22.5,00.0,0610.8,30.8
2020-01-22T03:03:00Z,00000380,61000600,,,,,,,,,,22.6,00.0,0610.8,30.8
2020-01-22T03:04:00Z,00000380,41000600,-001.09,-000.46,0000.02,-000.38,0000.22,0000.07,-000.06,0000.12,-000.04,22.4,00.0,0611.7,30.8
2020-01-22T03:05:00Z,00000380,01000600,-000.83,-000.34,-000.42,-000.26,0000.27,-000.14,0000.11,-000.13,0000.04,22.4,00.0,0611.7,30.8
2020-01-22T03:06:00Z,00000380,01000600,0000.25,-000.31,-000.09,-000.55,-000.09,0000.41,-000.13,0000.05,0000.03,22.4,00.0,0611.7,30.8
2020-01-22T03:07:00Z,00000380,01000600,-000.13,0000.52,-000.07,0000.81,0000.39,0000.11,-000.04,0000.04,-000.07,22.4,00.0,0611.7,30.8
2020-01-22T03:08:00Z,00000380,01000600,0000.95,-000.27,0000.46,-000.28,0000.33,-000.07,0000.11,-000.02,0000.03,22.4,00.0,0611.7,30.8
2020-01-22T03:09:00Z,00000380,01000600,0000.25,0000.36,-000.37,-000.27,-000.26,0000.17,0000.17,0000.10,0000.08,22.4,00.0,0611.7,30.8
2020-01-22T03:10:00Z,00000380,01000600,0000.42,0000.03,0000.04,-000.63,-000.10,-000.05,0000.04,0000.08,0000.16,22.4,00.0,0611.7,30.8